www.pogodaiklimat.ru

Погода и климат >> Архив погоды >> Индонезия >> Танджунгселор


ПОГОДА в Танджунгселоре

  • Прогноз погоды в Танджунгселоре
  • Монитор погоды в Танджунгселоре

АРХИВ ПОГОДЫ в Танджунгселоре

Время (UTC), дата Ветер
(напр.,м/с)
 
Видим.   Явления Облачность Т
(С)
Тd
(С)
f
(%)
Тe
(С)
Тes
(С)
Комфортность P
(гПа)
Po
(гПа)
Тmin
(С)
Tmax
(С)
R
(мм)
R24
(мм)
S
(см)
15 16.07 штиль 0 8000 м 8/3 450 м
[Sc Ac As Cs]
+26.1 +22.3 80 +34 +34 очень
душно
1008.7 1008.4
18 16.07 ЮВ 3 8000 м 10/3 450 м
[Sc Ac As Cs]
+25.9 +21.7 78 +33 +33 очень
душно
1007.7 1007.3
21 16.07 Ю 8 8000 м 9/1 450 м
[Sc Ac As Cs]
+25.5 +21.2 77 +32 +32 очень
душно
1007.1 1006.8
00 17.07 ЮВ 3 8000 м 9/3 450 м
[Sc Ac As Cs]
+25.2 +22.2 83 +33 +34 очень
душно
1008.6 1008.2 +24.4
03 17.07 Ю 4 9000 м 6/3 450 м
[Sc Ac As Cs]
+29.8 +22.4 65 +39 +46 очень
душно
1008.1 1007.8
06 17.07 ЮВ 4 10 км 5/3 450 м
[Cu hum Ac As Cs]
+32.4 +23.8 61 +44 +50 опасность
перегрева
1006.4 1006.0
09 17.07 Ю 2 10 км 6/1 450 м
[Sc Ac As Ci fib]
+31.8 +23.1 60 +42 +43 опасность
перегрева
1005.9 1005.5
12 17.07 штиль 0 8000 м 5/3 450 м
[Cu hum Ac As Ci fib]
+28.3 +24.2 78 +39 +39 очень
душно
1007.7 1007.3 +32.8
15 17.07 штиль 0 8000 м 6/3 450 м
[Sc diur, vesp Ac As Ci fib]
+25.4 +23.3 88 +34 +34 очень
душно
1008.8 1008.4
18 17.07 штиль 0 8000 м 8/4 450 м
[Sc Ac As Ci fib]
+24.2 +23.1 94 +32 +32 очень
душно
1008.2 1007.9
21 17.07 штиль 0 8000 м 5/3 450 м
[Sc Ac As Ci fib]
+23.4 +22.4 94 +32 +32 очень
душно
1008.0 1007.6
00 18.07 Ю 2 10 км 4/1 450 м
[Cu hum Ac trans Ci fib]
+26.0 +23.0 84 +35 +38 очень
душно
1009.3 1008.9 +22.8
03 18.07 ЮВ 2 10 км 4/1 450 м
[Cu hum Ac trans Ci fib]
+30.8 +23.9 67 +42 +57 опасность
перегрева
1008.7 1008.3
06 18.07 ЮВ 5 10 км 6/3 450 м
[Cu hum Ac trans Ci fib]
+34.0 +22.4 51 +43 +48 опасность
перегрева
1006.1 1005.7
09 18.07 СВ 6 9000 м 8/4 450 м
[Cu hum Ac As Ci fib]
+31.5 +24.3 66 +44 +44 опасность
перегрева
1006.1 1005.8
12 18.07 СВ 1 8000 м 8/4 450 м
[Cu hum Ac As Ci fib]
+29.1 +24.5 76 +41 +41 опасность
перегрева
1008.1 1007.7 +34.4
15 18.07 штиль 0 8000 м 8/4 450 м
[Cu hum Ac As Ci fib]
+26.8 +24.7 88 +38 +38 очень
душно
1009.4 1009.0
18 18.07 штиль 0 8000 м 8/4 450 м
[Cu hum Ac As Ci fib]
+25.9 +23.8 88 +35 +35 очень
душно
1008.6 1008.2
21 18.07 штиль 0 9000 м 9/3 450 м
[Cu hum Ac As Ci fib]
+25.5 +24.7 95 +36 +36 очень
душно
1008.4 1008.0
00 19.07 В 2 7000 м 8/3 450 м
[Sc Ac As Cs]
+27.6 +25.5 88 +40 +43 очень
душно
1009.5 1009.2 +25.2
03 19.07 В 3 8000 м 9/4 450 м
[Cu hum Ac As Cs]
+30.7 +23.9 67 +42 +47 опасность
перегрева
1009.2 1008.8
06 19.07 В 3 9000 м 9/4 450 м
[Cu hum Ac As Ci fib]
+32.3 +23.5 60 +43 +48 опасность
перегрева
1007.3 1006.9
09 19.07 В 6 9000 м 8/3 450 м
[Cu hum Ac As Ci fib]
+32.4 +24.4 63 +45 +45 опасность
перегрева
1006.5 1006.2
12 19.07 штиль 0 8000 м 4/1 450 м
[Sc Ac As Ci fib]
+28.2 +24.7 81 +40 +40 очень
душно
1008.5 1008.1 +33.3
15 19.07 штиль 0 8000 м 4/1 450 м
[Sc Ac As Ci fib]
+26.1 +24.6 91 +37 +37 очень
душно
1010.3 1010.0
18 19.07 штиль 0 8000 м 4/1 450 м
[Sc Ac As Ci fib]
+24.9 +24.1 95 +34 +34 очень
душно
1009.4 1009.1
21 19.07 штиль 0 8000 м 4/1 450 м
[Sc Ac As Ci fib]
+24.4 +23.7 96 +33 +33 очень
душно
1009.6 1009.2
00 20.07 штиль 0 8000 м 4/3 450 м
[Cu hum As trans Ci fib]
+26.0 +24.5 91 +36 +40 очень
душно
1011.0 1010.6 +23.8
03 20.07 штиль 0 8000 м 6/4 450 м
[Cu hum As trans Ci fib]
+31.5 +23.2 61 +42 +54 опасность
перегрева
1010.6 1010.2
06 20.07 СВ 4 8000 м 8/4 450 м
[Cu hum Ac As Ci fib]
+33.2 +23.3 56 +44 +48 опасность
перегрева
1007.9 1007.6
09 20.07 СВ 4 10 км 3/1 450 м
[Cu hum Ac trans Ci fib]
+31.7 +23.2 61 +42 +43 опасность
перегрева
1007.1 1006.7
12 20.07 штиль 0 8000 м 3/1 450 м
[Cu hum Ac As Ci fib]
+27.9 +24.8 83 +40 +40 очень
душно
1008.8 1008.4 +33.3
15 20.07 штиль 0 8000 м 1/1 450 м
[Sc Cs]
+25.8 +24.3 91 +36 +36 очень
душно
1010.4 1010.1
18 20.07 штиль 0 8000 м 3/3 450 м
[Cu hum Ac trans Cs]
+25.0 +24.2 95 +34 +34 очень
душно
1009.2 1008.8
21 20.07 В 2 8000 м 4/3 450 м
[Cu hum Ac trans Cs]
+24.7 +23.9 95 +34 +34 очень
душно
1008.8 1008.4
00 21.07 СВ 4 10 км 3/1 450 м
[Sc diur, vesp As trans]
+26.1 +24.1 89 +36 +38 очень
душно
1010.2 1009.8 +24.4
03 21.07 В 3 10 км 5/5 450 м
[Cu hum As trans Ci fib]
+30.8 +23.6 66 +42 +50 опасность
перегрева
1009.6 1009.3
06 21.07 СВ 3 8000 м 6/4 450 м
[Cu hum Ac As Ci fib]
+33.4 +23.0 55 +44 +51 опасность
перегрева
1007.7 1007.3
09 21.07 СВ 4 8000 м 6/4 450 м
[Cu hum Ac As Ci fib]
+32.7 +23.3 58 +43 +44 опасность
перегрева
1006.6 1006.2
12 21.07 штиль 0 8000 м 5/1 450 м
[Cu hum Ac trans Cs]
+28.2 +24.4 80 +40 +40 очень
душно
1008.1 1007.7 +33.7
15 21.07 штиль 0 8000 м 5/1 450 м
[Cu hum Ac trans Cs]
+26.2 +24.1 88 +36 +36 очень
душно
1009.3 1009.0
18 21.07 штиль 0 8000 м 4/1 450 м
[Cu hum Ac trans Cs]
+25.2 +24.1 94 +35 +35 очень
душно
1008.3 1008.0
21 21.07 штиль 0 8000 м 4/1 450 м
[Cu hum Ac trans Cs]
+24.4 +23.4 94 +33 +33 очень
душно
1008.3 1007.9
00 22.07 штиль 0 8000 м 4/1 450 м
[Sc diur, vesp Ac trans Ci fib]
+25.4 +23.9 91 +35 +39 очень
душно
1009.2 1008.9 +24.0
03 22.07 ЮВ 4 9000 м 6/4 450 м
[Cu hum Ac trans Ci fib]
+31.4 +24.2 66 +44 +50 опасность
перегрева
1008.6 1008.2
06 22.07 В 3 10 км 6/4 450 м
[Cu hum Ac trans Ci fib]
+34.3 +23.9 55 +46 +53 опасность
перегрева
1006.2 1005.9
09 22.07 СВ 7 8000 м 5/3 450 м
[Cu hum Ac As Ci fib]
+31.6 +24.5 66 +44 +44 опасность
перегрева
1005.5 1005.2
12 22.07 штиль 0 8000 м 6/4 450 м
[Sc diur, vesp Ac As Ci fib]
+28.6 +24.8 80 +41 +41 опасность
перегрева
1007.5 1007.1 +34.5
15 22.07 В 1 8000 м 6/4 450 м
[Sc diur, vesp Ac As Ci fib]
+27.0 +24.0 84 +37 +37 очень
душно
1009.3 1008.9
18 22.07 штиль 0 8000 м 6/4 450 м
[Cu hum Ac As Ci fib]
+26.0 +24.5 91 +36 +36 очень
душно
1008.6 1008.2
21 22.07 штиль 0 8000 м 5/3 450 м
[Cu hum Ac trans Ci fib]
+25.6 +24.1 91 +35 +35 очень
душно
1008.3 1007.9
00 23.07 ЮВ 2 8000 м 9/3 450 м
[Sc Ac As Ci fib]
+26.8 +24.6 88 +38 +40 очень
душно
1009.4 1009.1 +25.4
06 23.07 В 4 10 км 5/4 450 м
[Cu hum Ac trans Ci fib]
+34.3 +23.6 54 +45 +51 опасность
перегрева
1006.0 1005.6
09 23.07 СВ 5 10 км 6/4 450 м
[Cu hum Ac trans Ci fib]
+32.0 +24.0 63 +44 +44 опасность
перегрева
1005.2 1004.9
12 23.07 СВ 2 8000 м {гроза, дождь} 8/4
[Cb cap Ac As Ci fib]
+24.9 +22.9 89 +33 +33 очень
душно
1007.7 1007.3 +34.4 2

 

Местоположение метеостанции Танджунгселор (Индонезия): широта 2.85 долгота 117.33 высота над уровнем моря 50 м.

В архиве по умолчанию представлена погода в Танджунгселоре за последнюю неделю. Архивные данные за месяц целиком и за предыдущие месяцы, начиная с января 2011 года, Вы можете получить, выбрав интересующий диапазон дат из раскрывающегося списка и нажав кнопку "Ввод!".


*Определитесь, кто Вы:
робот инопланетянин человек

Внимание! Время в таблицах - всемирное. Для получения местного времени необходимо прибавить поправку, которая равна 8 ч.

Смотрите также архив погоды в соседних городах и на ближайших метеорологических станциях:

Погода в Таракане (Индонезия) (59 км)
Погода в Танджунгредепе (Индонезия) (82 км)
Погода в Тавау (Малайзия) (169 км)
Погода в Лонгбаване (Индонезия) (208 км)
Погода в Сандакане (Малайзия) (349 км)
Погода в Бруней аэропорту (Бруней) (353 км)
Погода в Лабуане (Малайзия) (357 км)
Погода в Кота-Кинабалу (Малайзия) (371 км)
Погода в Самаринде (Индонезия) (386 км)
Погода в Мири (Малайзия) (407 км)

Пояснения к столбцам:

Ветер - указаны скорость ветра в м/с - средняя за 10 мин, порывы в срок и между сроками (в фигурных скобках) и направление, откуда дует ветер: С - северный, СВ - северо-восточный, В - восточный, ЮВ - юго-восточный, Ю - южный, ЮЗ - юго-западный, З - западный, СЗ - северо-западный.
Видимость - горизонтальная дальность видимости в метрах или километрах. При видимости от 1 до 10 км при отсутствии осадков обычно наблюдается дымка, при ухудшении видимости до 1 км и менее - туман. В сухую погоду видимость может ухудшаться дымом, пылью или мглою.
Явления - указаны атмосферные явления, наблюдавшиеся в срок или в последний час перед сроком; фигурными скобками обозначены явления, наблюдавшиеся между сроками (за 1-3 часа до срока); квадратными скобками обозначены град или гололедные отложения с указанием их диаметра в мм.
Облачность - указаны через наклонную черту общая и нижняя облачность в баллах и высота нижней границы облаков в метрах; квадратными скобками обозначены формы облаков: Ci - перистые, Cs - перисто-слоистые, Cc - перисто-кучевые, Ac - высококучевые, As - высокослоистые, Sc - слоисто-кучевые, Ns - слоисто-дождевые, Cu - кучевые, Cb - кучево-дождевые. Подробнее классификацию облаков см. в Атласе облаков (PDF).
T - Температура воздуха - температура, измеренная на высоте 2 м над землей.
Td - Температура точки росы - температура, при понижении до которой содержащийся в воздухе водяной пар достигнет насыщения.
f - Относительная влажность воздуха - влажноcть воздуха, измеренная на высоте 2 м над землей.
Te - Эффективная температура - температура, которую ощущает одетый по сезону человек в тени. Характеристика душности погоды. При расчете учитывается влияние влажности воздуха и скорости ветра на теплоощущения человека.
Tes - Эффективная температура на солнце - температура, которую ощущает человек, с поправкой на солнечный нагрев. Характеристика знойности погоды. Зависит от высоты солнца над горизонтом, облачности и скорости ветра. Ночью, в пасмурную погоду, а также при ветре 12 м/с и более поправка равна нулю.
P - Атмосферное давление - приведенное к уровню моря атмосферное давление.
Po - Атмосферное давление - измеренное на уровне метеостанции атмосферное давление.
Tmin - Минимальная температура - минимум температуры воздуха на высоте 2 м над землей.
Tmax - Максимальная температура - максимум температуры воздуха на высоте 2 м над землей.
R - Количество осадков - Количество выпавших осадков за период времени, мм. При наведении курсора мыши на число - период времени, за который выпало указанное количество осадков.
R24 - Количество осадков - Количество выпавших осадков за 24 часа, мм.
S - Снежный покров - Высота снежного покрова, см. При наведении курсора мыши на число - состояние снежного покрова и степень покрытия местности в баллах.